Content
SEND FEEDBACK

Daily
Averages
Monthly
Summary
Canada

PRINCE RUPERT, BRITISH COLUMBIA


Home > North America > Canada > British Columbia
Elevation: 111 feet     Latitude: 54 17N     Longitude: 130 27W

WEATHER
 
SELECT A DAY
Number of Records: 354,062;   Date Range: 1/1/95 - 9/29/14
 
SHARE

PRINT THIS DATA

[ ← Previous Day ]
WEATHER ALMANAC - FEBRUARY 5, 2013
[ Next Day → ]
[ °C ]   °F
Weather ElementAverageHighLow
Temperature42 °F44.6 °F (11:00 am)37.4 °F (8:00 pm)
Dewpoint38.3 °F41 °F (2:51 pm)35.6 °F (7:00 pm)
Humidity86.8 %93 % (12:50 am)76 % (11:00 am)
Barometer29.41 in29.45 in (12:50 am)29.35 in (5:00 am)
Wind Speed5.7 mph13.8 mph (9:33 am)
Wind Gust19.6 mph (7:50 am)
Weather ElementAverage
Visibility9 mi
Wind DirectionESE (110.6 °)

Weather ElementTotal
Precipitation---
Heating Degree Days24 (Base 65)
Averaged from 52 records on February 5, 2013
WEATHER CONDITIONS BREAKOUT
WIND DIRECTION BREAKOUT
WEATHER BY HOUR - FEBRUARY 5, 2013
[ °C ]   °F
Local TimeTemperatureDewpointHumidityBarometerVisibilityWind DirectionWind SpeedGust SpeedPrecipitationEventsConditions
12:50 AM41.0 °F39.2 °F93 %29.45 in9.0 miEast (100°)3.5 mphOvercast
1:00 AM41.0 °F39.2 °F93 %29.45 in9.0 miCalmOvercast
1:02 AM41.0 °F39.2 °F93 %29.45 in9.0 miCalmRainLight Rain
1:28 AM41.0 °F39.2 °F93 %29.44 in9.0 miSE (130°)4.6 mphOvercast
1:33 AM41.0 °F39.2 °F93 %29.43 in9.0 miEast (90°)4.6 mphRainLight Rain
2:00 AM41.0 °F39.2 °F93 %29.43 in9.0 miSSW (200°)3.5 mphRainLight Rain
3:00 AM42.8 °F37.4 °F81 %29.39 in9.0 miEast (100°)6.9 mphRainLight Rain
3:44 AM41.0 °F39.2 °F93 %29.37 in9.0 miVariable2.3 mphOvercast
3:49 AM41.0 °F39.2 °F93 %29.37 in9.0 miVariable2.3 mphRainLight Rain
5:00 AM41.0 °F39.2 °F93 %29.35 in9.0 miVariable2.3 mphMostly Cloudy
5:22 AM41.0 °F37.4 °F87 %29.35 in9.0 miSSE (150°)5.8 mphRainLight Rain
5:37 AM41.0 °F37.4 °F87 %29.35 in9.0 miSE (140°)9.2 mphOvercast
5:58 AM41.0 °F37.4 °F87 %29.36 in9.0 miSE (140°)8.1 mphRainLight Rain
6:00 AM41.0 °F37.4 °F87 %29.36 in9.0 miSE (140°)9.2 mphRainLight Rain
6:28 AM41.0 °F37.4 °F87 %29.36 in9.0 miSE (140°)10.4 mphOvercast
6:31 AM41.0 °F37.4 °F87 %29.37 in9.0 miSE (140°)10.4 mphRainLight Rain
6:43 AM42.8 °F37.4 °F81 %29.37 in9.0 miSE (130°)11.5 mphOvercast
6:45 AM42.8 °F37.4 °F81 %29.37 in9.0 miSE (130°)12.7 mphRainLight Rain
7:00 AM42.8 °F37.4 °F81 %29.38 in9.0 miSSE (150°)10.4 mphRainLight Rain
7:18 AM42.8 °F37.4 °F81 %29.39 in9.0 miSE (140°)12.7 mphOvercast
7:27 AM42.8 °F37.4 °F81 %29.39 in9.0 miSE (140°)10.4 mph18.4 mphRainLight Rain
7:50 AM42.8 °F37.4 °F81 %29.39 in9.0 miSSE (150°)10.4 mph19.6 mphOvercast
8:00 AM42.8 °F37.4 °F81 %29.40 in9.0 miSE (140°)11.5 mph18.4 mphOvercast
9:00 AM42.8 °F37.4 °F81 %29.42 in9.0 miSE (140°)9.2 mphOvercast
9:02 AM42.8 °F37.4 °F81 %29.42 in9.0 miSSE (150°)11.5 mphRainLight Rain
9:33 AM41.0 °F37.4 °F87 %29.42 in9.0 miSE (130°)13.8 mphOvercast
10:00 AM42.8 °F37.4 °F81 %29.42 in9.0 miEast (90°)8.1 mphMostly Cloudy
11:00 AM44.6 °F37.4 °F76 %29.42 in9.0 miSouth (170°)4.6 mphOvercast
11:17 AM42.8 °F37.4 °F81 %29.43 in9.0 miSSE (160°)5.8 mphRainLight Rain
11:44 AM42.8 °F39.2 °F87 %29.43 in9.0 miSE (130°)9.2 mphOvercast
12:00 PM42.8 °F39.2 °F87 %29.43 in9.0 miSE (130°)5.8 mphOvercast
12:07 PM42.8 °F39.2 °F87 %29.44 in9.0 miSSE (150°)5.8 mphRainLight Rain
12:49 PM42.8 °F37.4 °F81 %29.43 in9.0 miVariable2.3 mphOvercast
1:00 PM42.8 °F39.2 °F87 %29.43 in9.0 miVariable2.3 mphMostly Cloudy
1:39 PM42.8 °F39.2 °F87 %29.42 in9.0 miVariable2.3 mphRainLight Rain
1:56 PM44.6 °F39.2 °F81 %29.42 in9.0 miVariable4.6 mphOvercast
2:00 PM44.6 °F39.2 °F81 %29.42 in9.0 miNorth (10°)3.5 mphOvercast
2:14 PM44.6 °F39.2 °F81 %29.42 in9.0 miVariable2.3 mphRainLight Rain
2:51 PM42.8 °F41.0 °F93 %29.42 in9.0 miWest (280°)3.5 mphOvercast
3:00 PM42.8 °F41.0 °F93 %29.42 in9.0 miWest (280°)3.5 mphOvercast
4:00 PM42.8 °F41.0 °F93 %29.42 in9.0 miNNW (330°)3.5 mphMostly Cloudy
4:34 PM42.8 °F41.0 °F93 %29.42 in9.0 miVariable2.3 mphRainLight Rain
4:46 PM42.8 °F41.0 °F93 %29.42 in9.0 miWSW (240°)3.5 mphOvercast
5:00 PM42.8 °F41.0 °F93 %29.42 in9.0 miVariable2.3 mphMostly Cloudy
6:00 PM42.8 °F37.4 °F81 %29.42 in9.0 miSSE (150°)3.5 mphOvercast
6:31 PM42.8 °F37.4 °F81 %29.42 in9.0 miSouth (180°)4.6 mphRainLight Rain
6:53 PM41.0 °F37.4 °F87 %29.42 in9.0 miSSE (160°)3.5 mphMostly Cloudy
7:00 PM41.0 °F35.6 °F81 %29.42 in9.0 miSSE (150°)3.5 mphMostly Cloudy
8:00 PM37.4 °F35.6 °F93 %29.42 in9.0 miEast (90°)3.5 mphScattered Clouds
9:00 PM39.2 °F37.4 °F93 %29.43 in9.0 miCalmOvercast
10:00 PM39.2 °F37.4 °F93 %29.43 in9.0 miCalmOvercast
11:00 PM39.2 °F37.4 °F93 %29.44 in9.0 miSouth (180°)3.5 mphMostly Cloudy
Hourly data recorded from CYPR, located miles away from Prince Rupert, British Columbia







STORIES FROM OUR PARTNERS